Вернуться в каталог

FENGYUN 1C DEB

АктивенSSO
NORAD 30481·DEBRIS·🇨🇳 China

Запущен May 10, 1999 с Taiyuan Satellite Launch Center

Loading…

Ближайшие Пролёты (ближайшие 24 часа)

TLE

СвежийSource: Space-Track

Эпоха: Sep 14, 2026, 19:22 UTC

1 30481U 99025AGT 26257.80749358  .00000873  00000-0  21908-3 0  9998
2 30481  98.3249 272.6871 0222226 148.8048  24.8889 14.39968874 24470

Отслеживайте FENGYUN 1C DEB в реальном времени с AllMySat

Download on the App Store